Location: Spring Creek
(38.2870°N, 100.2160°W)
Time: 03:58:29
(UTC+00:00)

Cosmos 2369 Rocket - Pass Details

Date: 08 May 2021
Orbit: 827 x 854 km, 71.0° (Epoch: 22 June)

Event Time Altitude Azimuth Distance (km) Brightness Sun altitude
Exits shadow 07:47:53 26° 310° (NW) 1,601 3.7 -32.1°
Drops below altitude 10° 07:52:09 10° 359° (N) 2,456 5.4 -31.8°
Sets 07:55:01 0° 12° (NNE) 3,399 6.4 -31.6°
